| time (UTC) | temp C | wind direction | speed KPH | gust KPH | rain 1hr cm | rain 24hr cm | rain mn cm | humidity % | barometer mb |
| 20260506173052 | 10 | 43 | 4.8 | 11.3 | 0.03 | 0.00 | 1.68 | 99 | 1000.9 |
| 20260506172048 | 10 | 23 | 4.8 | 9.7 | 0.00 | 0.00 | 1.65 | 99 | 1000.8 |
| 20260506170054 | 10 | 47 | 3.2 | 8.0 | 0.00 | 0.00 | 1.65 | 99 | 1000.8 |
| 20260506165052 | 10 | 24 | 1.6 | 8.0 | 0.03 | 0.00 | 1.65 | 99 | 1000.7 |
| 20260506164049 | 10 | 27 | 3.2 | 9.7 | 0.05 | 0.00 | 1.65 | 99 | 1000.7 |
| 20260506163040 | 10 | 23 | 3.2 | 9.7 | 0.05 | 0.00 | 1.65 | 99 | 1000.6 |
| 20260506162039 | 10 | 23 | 6.4 | 11.3 | 0.05 | 0.00 | 1.65 | 99 | 1000.6 |
| 20260506161039 | 10 | 18 | 6.4 | 16.1 | 0.05 | 0.00 | 1.65 | 99 | 1000.8 |
| 20260506160045 | 10 | 48 | 6.4 | 14.5 | 0.05 | 0.00 | 1.65 | 99 | 1000.8 |
| 20260506155037 | 10 | 40 | 4.8 | 11.3 | 0.03 | 0.00 | 1.63 | 99 | 1000.9 |
| 20260506154041 | 10 | 40 | 6.4 | 14.5 | 0.00 | 0.00 | 1.60 | 99 | 1000.9 |
| 20260506153037 | 10 | 72 | 4.8 | 11.3 | 0.00 | 0.00 | 1.60 | 99 | 1000.9 |
| 20260506152053 | 10 | 49 | 4.8 | 8.0 | 0.00 | 0.00 | 1.60 | 99 | 1000.9 |
| 20260506150046 | 10 | 20 | 4.8 | 9.7 | 0.03 | 0.00 | 1.60 | 99 | 1000.6 |
| 20260506145046 | 10 | 47 | 6.4 | 14.5 | 0.03 | 0.00 | 1.60 | 99 | 1000.6 |
| 20260506144040 | 10 | 44 | 8.0 | 14.5 | 0.03 | 0.00 | 1.60 | 99 | 1000.6 |
| 20260506143046 | 10 | 50 | 6.4 | 12.9 | 0.03 | 0.00 | 1.60 | 99 | 1000.6 |
| 20260506142047 | 10 | 46 | 8.0 | 14.5 | 0.03 | 0.00 | 1.60 | 99 | 1000.7 |
| 20260506141055 | 10 | 48 | 11.3 | 19.3 | 0.00 | 0.00 | 1.57 | 99 | |
| 20260506135031 | 10 | 50 | 9.7 | 16.1 | 0.00 | 0.00 | 1.57 | 99 | |
| 20260506134053 | 10 | 44 | 11.3 | 20.9 | 0.00 | 0.00 | 1.57 | 99 | |
| 20260506133046 | 10 | 44 | 9.7 | 19.3 | 0.00 | 0.00 | 1.57 | 99 | 1000.7 |
| 20260506132039 | 10 | 72 | 8.0 | 16.1 | 0.00 | 0.00 | 1.57 | 99 | 1000.7 |
| 20260506131031 | 10 | 45 | 11.3 | 19.3 | 0.03 | 0.00 | 1.57 | 99 | 1000.7 |
| 20260506130040 | 10 | 48 | 12.9 | 22.5 | 0.03 | 0.00 | 1.57 | 99 | 1000.7 |
| 20260506125047 | 10 | 41 | 9.7 | 19.3 | 0.03 | 0.00 | 1.57 | 99 | 1000.7 |
| 20260506123044 | 10 | 73 | 8.0 | 14.5 | 0.05 | 0.00 | 1.57 | 99 | 1000.7 |
| 20260506122048 | 10 | 68 | 9.7 | 19.3 | 0.05 | 0.00 | 1.57 | 99 | 1000.7 |
| 20260506121038 | 10 | 50 | 9.7 | 16.1 | 0.05 | 0.00 | 1.55 | 99 | 1000.8 |
| 20260506120049 | 10 | 40 | 6.4 | 14.5 | 0.05 | 0.00 | 1.55 | 99 | 1000.7 |
| 20260506115052 | 10 | 40 | 9.7 | 14.5 | 0.08 | 0.00 | 1.55 | 99 | 1000.6 |
| 20260506114047 | 10 | 44 | 6.4 | 12.9 | 0.08 | 0.00 | 1.55 | 99 | 1000.8 |
| 20260506113051 | 10 | 43 | 9.7 | 17.7 | 0.05 | 0.00 | 1.52 | 99 | 1000.9 |
| 20260506110055 | 9 | 49 | 6.4 | 14.5 | 0.10 | 0.00 | 1.50 | 99 | 1000.7 |
| 20260506105045 | 9 | 50 | 8.0 | 19.3 | 0.08 | 0.00 | 1.47 | 99 | 1000.7 |
| 20260506104041 | 9 | 48 | 8.0 | 16.1 | 0.08 | 0.00 | 1.47 | 99 | 1000.7 |
| 20260506103047 | 9 | 48 | 6.4 | 16.1 | 0.08 | 0.00 | 1.47 | 99 | 1000.7 |
| 20260506102050 | 8 | 39 | 6.4 | 16.1 | 0.03 | 0.00 | 1.42 | 99 | 1000.7 |
| 20260506101044 | 9 | 49 | 8.0 | 16.1 | 0.05 | 0.00 | 1.42 | 99 | 1000.8 |
| 20260506095050 | 8 | 39 | 6.4 | 16.1 | 0.03 | 0.00 | 1.40 | 99 | 1000.7 |
| 20260506093038 | 8 | 42 | 6.4 | 16.1 | 0.05 | 0.00 | 1.40 | 99 | 1000.6 |
| 20260506092037 | 8 | 51 | 4.8 | 9.7 | 0.05 | 0.00 | 1.40 | 99 | 1000.4 |
| 20260506091045 | 8 | 39 | 6.4 | 14.5 | 0.05 | 0.00 | 1.37 | 99 | 1000.4 |
| 20260506090054 | 8 | 43 | 6.4 | 14.5 | 0.05 | 0.00 | 1.37 | 99 | 1000.5 |
| 20260506085044 | 8 | 40 | 6.4 | 17.7 | 0.08 | 0.00 | 1.37 | 99 | 1000.5 |
| 20260506084044 | 8 | 45 | 8.0 | 14.5 | 0.08 | 0.00 | 1.35 | 99 | 1000.4 |
| 20260506083046 | 8 | 27 | 8.0 | 16.1 | 0.10 | 0.00 | 1.35 | 99 | 1000.3 |
| 20260506082047 | 8 | 41 | 6.4 | 12.9 | 0.10 | 0.00 | 1.35 | 99 | 1000.2 |
| 20260506081100 | 8 | 40 | 6.4 | 16.1 | 0.10 | 0.00 | 1.32 | 99 | 1000.2 |
| 20260506072035 | 8 | 44 | 6.4 | 12.9 | 0.20 | 0.00 | 1.24 | 99 | 1000.2 |
| 20260506071031 | 8 | 46 | 6.4 | 16.1 | 0.23 | 0.00 | 1.22 | 99 | 1000.0 |
| 20260506062045 | 8 | 29 | 4.8 | 9.7 | 0.18 | 0.00 | 1.04 | 99 | 999.8 |
| 20260506061041 | 8 | 49 | 6.4 | 12.9 | 0.15 | 0.00 | 0.99 | 99 | 999.7 |
| 20260506051053 | 8 | 39 | 6.4 | 12.9 | 0.13 | 0.00 | 0.84 | 99 | 999.7 |
| 20260506045054 | 8 | 19 | 4.8 | 11.3 | 0.15 | 0.00 | 0.81 | 99 | 999.8 |
| 20260506044050 | 8 | 46 | 6.4 | 12.9 | 0.15 | 0.00 | 0.79 | 99 | 999.9 |
| 20260506043042 | 8 | 44 | 4.8 | 12.9 | 0.18 | 0.00 | 0.76 | 99 | 999.9 |
| 20260506042054 | 8 | 49 | 6.4 | 14.5 | 0.15 | 0.00 | 0.74 | 99 | 999.9 |
| 20260506041048 | 8 | 28 | 6.4 | 11.3 | 0.15 | 0.00 | 0.71 | 99 | 1000.1 |
| 20260506040041 | 8 | 48 | 6.4 | 14.5 | 0.15 | 0.00 | 0.69 | 99 | 1000.1 |
| 20260506035042 | 9 | 39 | 6.4 | 12.9 | 0.15 | 0.00 | 0.66 | 99 | 1000.1 |
| 20260506034043 | 9 | 39 | 6.4 | 11.3 | 0.18 | 0.00 | 0.64 | 99 | 1000.1 |
| 20260506033041 | 9 | 45 | 9.7 | 16.1 | 0.15 | 0.00 | 0.56 | 99 | 1000.1 |
| 20260506032049 | 9 | 45 | 11.3 | 17.7 | 0.20 | 0.00 | 0.56 | 99 | 1000.2 |
| 20260506030052 | 10 | 45 | 6.4 | 11.3 | 0.20 | 0.00 | 0.51 | 99 | 1000.3 |
| 20260506025050 | 10 | 72 | 6.4 | 12.9 | 0.23 | 0.00 | 0.48 | 99 | 1000.3 |
| 20260506024043 | 10 | 50 | 6.4 | 11.3 | 0.20 | 0.00 | 0.43 | 99 | 1000.3 |
| 20260506022039 | 10 | 19 | 4.8 | 11.3 | 0.20 | 0.00 | 0.36 | 99 | 1000.5 |
| 20260506015049 | 10 | 45 | 4.8 | 9.7 | 0.15 | 0.00 | 0.25 | 99 | 1000.6 |
| 20260506014035 | 10 | 42 | 6.4 | 12.9 | 0.15 | 0.00 | 0.23 | 99 | 1000.6 |
| 20260506013041 | 10 | 46 | 6.4 | 11.3 | 0.15 | 0.00 | 0.20 | 99 | 1000.7 |
| 20260506012044 | 10 | 47 | 4.8 | 9.7 | 0.13 | 0.00 | 0.15 | 99 | 1000.7 |
| 20260506011054 | 10 | 28 | 6.4 | 11.3 | 0.10 | 0.00 | 0.13 | 99 | 1000.7 |
| 20260506010044 | 10 | 42 | 6.4 | 16.1 | 0.10 | 0.00 | 0.10 | 99 | 1000.7 |
| 20260506005043 | 10 | 45 | 6.4 | 11.3 | 0.10 | 0.00 | 0.10 | 99 | 1000.8 |
| 20260506004035 | 10 | 47 | 6.4 | 16.1 | 0.08 | 0.00 | 0.08 | 99 | 1000.9 |
| 20260506003051 | 10 | 23 | 6.4 | 9.7 | 0.05 | 0.00 | 0.05 | 99 | 1001.0 |
| 20260506002044 | 10 | 48 | 6.4 | 12.9 | 0.03 | 0.00 | 0.03 | 99 | 1001.1 |
| 20260506001054 | 10 | 19 | 6.4 | 12.9 | 0.03 | 0.00 | 0.03 | 99 | 1001.2 |
| 20260506000101 | 10 | 28 | 6.4 | 12.9 | 0.00 | 0.00 | 0.00 | 99 | 1001.3 |
| 20260505235031 | 10 | 42 | 4.8 | 12.9 | 0.00 | 0.00 | 0.08 | 99 | 1001.4 |
| 20260505234042 | 10 | 42 | 6.4 | 12.9 | 0.00 | 0.00 | 0.08 | 99 | 1001.5 |
| 20260505233037 | 10 | 45 | 6.4 | 16.1 | 0.00 | 0.00 | 0.08 | 99 | 1001.7 |
| 20260505232041 | 11 | 43 | 6.4 | 14.5 | 0.00 | 0.00 | 0.08 | 98 | 1001.6 |
| 20260505231036 | 11 | 51 | 6.4 | 12.9 | 0.00 | 0.00 | 0.08 | 98 | 1001.8 |
| 20260505225037 | 11 | 39 | 8.0 | 14.5 | 0.00 | 0.00 | 0.08 | 98 | 1001.8 |
| 20260505224042 | 11 | 42 | 6.4 | 16.1 | 0.00 | 0.00 | 0.08 | 99 | 1001.9 |
| 20260505223050 | 11 | 51 | 4.8 | 11.3 | 0.00 | 0.00 | 0.08 | 98 | 1001.9 |
| 20260505222041 | 11 | 48 | 4.8 | 12.9 | 0.00 | 0.00 | 0.08 | 98 | 1001.9 |
| 20260505221054 | 11 | 50 | 6.4 | 14.5 | 0.00 | 0.00 | 0.08 | 98 | 1001.9 |
| 20260505220050 | 11 | 43 | 6.4 | 16.1 | 0.00 | 0.00 | 0.08 | 96 | 1002.0 |
| 20260505214051 | 11 | 49 | 6.4 | 12.9 | 0.00 | 0.00 | 0.08 | 95 | 1002.2 |
| 20260505213039 | 11 | 50 | 8.0 | 16.1 | 0.00 | 0.00 | 0.08 | 94 | 1002.3 |
| 20260505212036 | 11 | 45 | 8.0 | 17.7 | 0.00 | 0.00 | 0.08 | 93 | 1002.2 |
| 20260505210101 | 12 | 48 | 6.4 | 14.5 | 0.00 | 0.00 | 0.08 | 92 | 1002.2 |
| 20260505205040 | 12 | 39 | 6.4 | 14.5 | 0.00 | 0.00 | 0.08 | 91 | 1002.4 |
| 20260505204054 | 12 | 50 | 9.7 | 19.3 | 0.00 | 0.00 | 0.08 | 91 | 1002.4 |
| 20260505203038 | 12 | 47 | 11.3 | 22.5 | 0.00 | 0.00 | 0.08 | 91 | 1002.2 |
| 20260505202047 | 12 | 49 | 9.7 | 19.3 | 0.00 | 0.00 | 0.08 | 91 | 1002.1 |
| 20260505201041 | 12 | 42 | 12.9 | 22.5 | 0.00 | 0.00 | 0.08 | 91 | 1002.2 |
| 20260505200057 | 12 | 41 | 9.7 | 20.9 | 0.00 | 0.00 | 0.08 | 91 | 1002.2 |
| 20260505195052 | 12 | 43 | 9.7 | 20.9 | 0.00 | 0.00 | 0.08 | 91 | 1002.2 |
| 20260505194034 | 12 | 42 | 9.7 | 17.7 | 0.00 | 0.00 | 0.08 | 90 | 1002.4 |
| 20260505192050 | 12 | 24 | 6.4 | 12.9 | 0.00 | 0.00 | 0.08 | 90 | 1002.5 |
| 20260505191038 | 12 | 46 | 6.4 | 12.9 | 0.00 | 0.00 | 0.08 | 89 | 1002.5 |
| 20260505190056 | 12 | 39 | 6.4 | 14.5 | 0.00 | 0.00 | 0.08 | 89 | 1002.4 |
| 20260505185040 | 12 | 43 | 6.4 | 14.5 | 0.00 | 0.00 | 0.08 | 89 | 1002.3 |
| 20260505184040 | 13 | 46 | 8.0 | 17.7 | 0.00 | 0.00 | 0.08 | 89 | 1002.2 |
| 20260505183048 | 13 | 45 | 8.0 | 17.7 | 0.00 | 0.00 | 0.08 | 89 | 1002.3 |
| 20260505182042 | 13 | 41 | 6.4 | 14.5 | 0.00 | 0.00 | 0.08 | 88 | 1002.3 |
| 20260505181039 | 13 | 43 | 3.2 | 9.7 | 0.00 | 0.00 | 0.08 | 88 | 1002.3 |
| 20260505180049 | 13 | 41 | 6.4 | 12.9 | 0.00 | 0.00 | 0.08 | 88 | 1002.3 |